Regional Weather Roundup
Issued by NWS Albany, NY

Home | Current Version | Previous Version | Text Only | Print | Product List | Glossary On
Versions: 1 2 3 4 5 6 7 8 9 10 11 12 13 14 15 16 17 18 19 20 21 22 23 24 25 26 27 28 29 30 31 32 33 34 35 36 37 38 39 40 41 42 43 44 45 46 47 48 49 50
000
ASUS41 KALY 200210
RWRALY

NEW YORK STATE HOURLY WEATHER ROUNDUP
NATIONAL WEATHER SERVICE ALBANY NY
900 PM EST FRI DEC 19 2014

NOTE: "FAIR" INDICATES FEW OR NO CLOUDS BELOW 12,000 FEET WITH NO
SIGNIFICANT WEATHER AND/OR NO OBSTRUCTIONS TO VISIBILITY.

NYZ032-033-038>043-046>054-057>066-NYZ062>081-200300-
EAST


CITY           SKY/WX    TMP DP  RH WIND       PRES   REMARKS
ALBANY         CLOUDY    28  19  69 NW13      30.19R WCI  17
GLENS FALLS    CLOUDY    27  19  72 E7        30.18R WCI  19
POUGHKEEPSIE   CLEAR     29  19  66 N3        30.15S
NEWBURGH       MOCLDY    30  23  74 NW6       30.15S WCI  24
MONTGOMERY     PTCLDY    29  20  69 NW6       30.12F WCI  23
WHITE PLAINS   CLOUDY    31  20  63 N7        30.11F WCI  24
ISLIP          PTCLDY    32  21  64 N10       30.11F WCI  24
NEW YORK CITY  MOCLDY    33  22  63 NW13      30.14F WCI  24
CENTRAL PARK   MOCLDY    32  19  58 VRB6      30.16F WCI  26
$$

NYZ005>009-017-018-044>046-055-056-200300-
CENTRAL


CITY           SKY/WX    TMP DP  RH WIND       PRES   REMARKS
FULTON         CLOUDY    28  19  69 CALM      30.22F
SYRACUSE       FLURRIES  26  21  81 NW3       30.23S
ROME           CLOUDY    24  18  77 N9        30.24R WCI  14
ELMIRA         CLOUDY    29  20  69 NW5       30.20R WCI  24
BINGHAMTON     CLOUDY    22  19  89 N15G23    30.13S WCI   9
MONTICELLO     CLOUDY    25  19  80 NW10G20   30.10F WCI  15
$$

NYZ026>034-041>043-200300-
NORTH


CITY           SKY/WX    TMP DP  RH WIND       PRES   REMARKS
WATERTOWN      CLEAR     19  12  74 NE5       30.25S WCI  12
FORT DRUM      NOT AVBL
MASSENA        PTCLDY    11   8  88 SW7       30.26R WCI   0
SARANAC LAKE   CLOUDY    16  32 100 CALM      30.11S
PLATTSBURGH    CLEAR     14  12  92 CALM      30.22R
$$

NYZ001>004-010>016-019>021-200300-
WEST


CITY           SKY/WX    TMP DP  RH WIND       PRES   REMARKS
NIAGARA FALLS  CLOUDY    28  22  78 W8        30.25R WCI  20
BUFFALO        CLOUDY    29  21  72 W8        30.24S WCI  21
DUNKIRK        CLOUDY    28  22  78 SW9       30.27R WCI  19
JAMESTOWN      CLOUDY    21  18  86 W5        30.21R WCI  15
WELLSVILLE     CLOUDY    22  18  85 W9        30.17R WCI  12
ROCHESTER      CLOUDY    29  23  78 W5        30.24R WCI  24
PENN YAN       CLOUDY    28  21  75 W3        30.20S
$$

             KEY
       WCI = WIND CHILL INDEX
       VSB = VISIBILITY
       HX  = HEAT INDEX
$$


USA.gov is the U.S. government's official web portal to all federal, state and local government web resources and services.